This demonstration page uses our WeatherBlox Daily Observations layout. Learn more.

Left ArrowRight Arrow

39.92423, -83.80882

Hourly Observations for November 16, 2015

Temp ( °F °C ) Dew Point ( °F °C ) Humidity (%) Winds ( mph kmh ) Pressure ( in mb ) Visibility ( mi km ) Precip ( " mm )
12:56 am 00:56 Clear 45 7.2 32 0 61 61 S 6 9 30.3 1026 10 16.0934 0 0
1:56 am 01:56 Clear 40 4.4 31 -0.5 71 71 Calm 30.3 1026 10 16.0934 0 0
2:56 am 02:56 Clear 34 1.1 30 -1.1 85 85 Calm 30.32 1027 10 16.0934 0 0
3:56 am 03:56 Clear 32 0 29 -1.6 89 89 ESE 3 6 30.31 1026 10 16.0934 0 0
4:56 am 04:56 Clear 31 -0.5 28 -2.2 88 88 ESE 3 6 30.31 1026 10 16.0934 0 0
5:56 am 05:56 Clear 30 -1.1 28 -2.2 92 92 ESE 3 6 30.31 1026 10 16.0934 0 0
6:56 am 06:56 Clear 30 -1.1 28 -2.2 92 92 SSE 5 7 30.32 1027 10 16.0934 0 0
7:56 am 07:56 Sunny 31 -0.5 29 -1.6 92 92 SE 3 6 30.33 1027 10 16.0934 0 0
8:56 am 08:56 Sunny 43 6.1 38 3.3 82 82 ESE 3 6 30.31 1027 10 16.0934 0 0
9:56 am 09:56 Sunny 52 11.1 35 1.6 52 52 SE 7 11 30.31 1027 10 16.0934 0 0
10:56 am 10:56 Sunny 57 13.8 32 0 39 39 SSE 7 11 30.32 1027 10 16.0934 0 0
11:56 am 11:56 Sunny 59 15 32 0 36 36 SSE 10 17 30.29 1026 10 16.0934 0 0
12:56 pm 12:56 Mostly Sunny 61 16.1 30 -1.1 31 31 SE 8 13 30.26 1025 10 16.0934 0 0
1:56 pm 13:56 Sunny 60 15.5 26 -3.3 27 27 SSE 10 17 30.24 1024 10 16.0934 0 0
2:56 pm 14:56 Sunny 58 14.4 30 -1.1 35 35 SSE 10 17 30.24 1024 10 16.0934 0 0
3:56 pm 15:56 Sunny 58 14.4 32 0 38 38 SSE 7 11 30.25 1024 10 16.0934 0 0
4:56 pm 16:56 Sunny 55 12.7 33 0.5 43 43 SE 6 9 30.25 1025 10 16.0934 0 0
5:56 pm 17:56 Clear 54 12.2 32 0 43 43 S 5 7 30.26 1025 10 16.0934 0 0
6:56 pm 18:56 Clear 53 11.6 33 0.5 47 47 S 5 7 30.27 1025 10 16.0934 0 0
7:56 pm 19:56 Mostly Clear 52 11.1 34 1.1 50 50 S 3 6 30.28 1025 10 16.0934 0 0
8:56 pm 20:56 Cloudy 52 11.1 35 1.6 52 52 SSE 5 7 30.27 1025 10 16.0934 0 0
9:56 pm 21:56 Cloudy 52 11.1 37 2.7 57 57 S 5 7 30.24 1024 10 16.0934 0 0
10:56 pm 22:56 Clear 49 9.4 37 2.7 63 63 S 3 6 30.23 1024 10 16.0934 0 0
11:56 pm 23:56 Mostly Cloudy 48 8.8 37 2.7 66 66 Calm 30.23 1024 10 16.0934 0 0

Powered by AerisWeather